Regional Weather Roundup
Issued by NWS Albany, NY

Home | Current Version | Previous Version | Text Only | Print | Product List | Glossary Off
Versions: 1 2 3 4 5 6 7 8 9 10 11 12 13 14 15 16 17 18 19 20 21 22 23 24 25 26 27 28 29 30 31 32 33 34 35 36 37 38 39 40 41 42 43 44 45 46 47 48 49 50

000
ASUS41 KALY 250210
RWRALY

NEW YORK STATE HOURLY WEATHER ROUNDUP
NATIONAL WEATHER SERVICE ALBANY NY
900 PM EST TUE JAN 24 2017

NOTE: "FAIR" INDICATES FEW OR NO CLOUDS BELOW 12,000 FEET WITH NO
SIGNIFICANT WEATHER AND/OR NO OBSTRUCTIONS TO VISIBILITY.

NYZ032-033-038>043-046>054-057>066-NYZ062>081-082-084-250300-
EAST


CITY           SKY/WX    TMP DP  RH WIND       PRES   REMARKS
ALBANY         LGT SNOW  33  31  92 N12       29.50R FOG     WCI  24
GLENS FALLS    LGT SNOW  32  28  85 E6        29.49S FOG     WCI  26
POUGHKEEPSIE   CLOUDY    33  32  96 NW5       29.45S WCI  29
NEWBURGH       LGT SNOW  32  32 100 N7        29.46S FOG     WCI  26
MONTGOMERY     LGT SNOW  35  32  88 NW5       29.45R FOG     WCI  31
WHITE PLAINS   LGT RAIN  36  33  89 NW16G22   29.39R WCI  26
ISLIP          CLOUDY    38  36  92 NW18G28   29.35R WCI  28
NEW YORK CITY  LGT RAIN  39  34  82 NW16      29.43R WCI  30
CENTRAL PARK   MIX PCPN  36  34  92 NW13G22   29.46R WCI  27
$$

NYZ005>009-017-018-044>046-055-056-250300-
CENTRAL


CITY           SKY/WX    TMP DP  RH WIND       PRES   REMARKS
FULTON         CLOUDY    30  27  88 W7        29.63R WCI  23
SYRACUSE       CLOUDY    29  27  92 W8        29.62R WCI  21
ROME           CLOUDY    30  26  85 W14       29.60R WCI  19
ELMIRA         CLOUDY    32  27  81 SW6       29.61R WCI  26
BINGHAMTON     CLOUDY    26  24  92 NW10      29.55R WCI  16
MONTICELLO     CLOUDY    30  30 100 W15G22    29.47R WCI  19
$$

NYZ026>034-041>043-087-250300-
NORTH


CITY           SKY/WX    TMP DP  RH WIND       PRES   REMARKS
WATERTOWN      CLOUDY    27  26  96 NW7       29.62S WCI  19
FORT DRUM      NOT AVBL
OGDENSBURG     CLOUDY    28  26  93 N6        29.60F FOG     WCI  21
MASSENA        CLOUDY    27  24  89 N6        29.61F WCI  20
SARANAC LAKE   CLOUDY    25  22  88 CALM      29.46S
PLATTSBURGH    CLOUDY    28  25  88 NW7       29.55R FOG     WCI  21
$$

NYZ001>004-010>016-019>021-085-250300-
WEST


CITY           SKY/WX    TMP DP  RH WIND       PRES   REMARKS
NIAGARA FALLS  CLOUDY    33  28  81 W5        29.70S WCI  29
BUFFALO        CLOUDY    33  28  81 W7        29.69F WCI  27
DUNKIRK        CLOUDY    35  34  96 W12       29.72S FOG     WCI  27
JAMESTOWN      CLOUDY    32  30  93 W9        29.68S VSB 3/4 WCI  24
WELLSVILLE     CLOUDY    31  28  89 NW20      29.63R WCI  19
ROCHESTER      CLOUDY    31  28  89 W10       29.66F WCI  22
PENN YAN       LGT SNOW  31  25  78 NW6       29.62S WCI  25
$$

             KEY
       WCI = WIND CHILL INDEX
       VSB = VISIBILITY
       HX  = HEAT INDEX
$$



USA.gov is the U.S. government's official web portal to all federal, state and local government web resources and services.